Newport Airport, OR

2:00 PM PDT on March 25, 2017 (GMT -0700)
Newport Municipal

Weather History for KONP - November, 2014

Change the Weather History Date:

Monday, November 24, 2014

  Actual Average Record
Temperature  
Mean Temperature 50 °F -  
Max Temperature 55 °F 52 °F 64 °F (2000)
Min Temperature 44 °F 42 °F 28 °F (2010)
Degree Days  
Heating Degree Days 16    
Moisture  
Dew Point 49 °F    
Average Humidity 90    
Maximum Humidity 100    
Minimum Humidity 67    
Precipitation  
Precipitation 0.17 in - - ()
Sea Level Pressure  
Sea Level Pressure 30.35 in    
Wind  
Wind Speed 8 mph (SSE)    
Max Wind Speed 22 mph    
Max Gust Speed 31 mph    
Visibility 7 miles    
Events Rain    
Averages and records for this station are not official NWS values.
T = Trace of Precipitation, MM = Missing Value Source: NWS Daily Summary

Daily Weather History Graph

Daily Weather History Graph

Search for Another Location

Airport or City:

Trip Planner

Search our weather history database for the weather conditions in past years. The results will help you decide how hot, cold, wet, or windy it might be!

Date:

Astronomy

Nov. 24, 2014 Rise Set
Actual Time 7:24 AM PST 4:41 PM PST
Civil Twilight 6:52 AM PST 5:13 PM PST
Nautical Twilight 6:16 AM PST 5:49 PM PST
Astronomical Twilight 5:41 AM PST 6:24 PM PST
Moon 9:21 AM PST (11/24) 7:09 PM PST (11/24)
Length of Visible Light 10h 21m
Length of Day
9h 16m
Waxing Crescent, 7% of the Moon is Illuminated
Nov 24
Waxing Crescent
Nov 29
First Quarter
Dec 6
Full
Dec 14
Last Quarter
Dec 21
New

Hourly Weather History & Observations

Time (PST) Temp. Windchill Dew Point Humidity Pressure Visibility Wind Dir Wind Speed Gust Speed Precip Events Conditions
12:15 AM 51.8 °F - 51.8 °F 100% 30.38 in 5.0 mi South 3.5 mph - 0.01 in   Drizzle
12:35 AM 51.8 °F - 50.0 °F 94% 30.38 in 10.0 mi SSE 4.6 mph - 0.01 in   Mostly Cloudy
12:55 AM 51.8 °F - 50.0 °F 94% 30.38 in 10.0 mi SSE 4.6 mph - 0.01 in   Scattered Clouds
1:15 AM 51.8 °F - 50.0 °F 94% 30.38 in 10.0 mi SSE 5.8 mph - N/A   Scattered Clouds
1:35 AM 51.8 °F - 50.0 °F 94% 30.37 in 10.0 mi SSE 5.8 mph - N/A   Scattered Clouds
1:55 AM 51.8 °F - 50.0 °F 94% 30.37 in 10.0 mi SE 3.5 mph - N/A   Clear
2:15 AM 50.0 °F - 48.2 °F 94% 30.38 in 10.0 mi Calm Calm - N/A   Clear
2:35 AM 50.0 °F - 48.2 °F 94% 30.38 in 10.0 mi Calm Calm - N/A   Clear
2:55 AM 48.2 °F - 46.4 °F 93% 30.38 in 10.0 mi Calm Calm - N/A   Clear
3:15 AM 48.2 °F - 46.4 °F 93% 30.37 in 10.0 mi ESE 5.8 mph - N/A   Clear
3:35 AM 48.2 °F - 46.4 °F 93% 30.37 in 10.0 mi East 3.5 mph - N/A   Clear
3:55 AM 48.2 °F - 46.4 °F 93% 30.37 in 10.0 mi East 5.8 mph - N/A   Clear
4:35 AM 48.2 °F - 46.4 °F 93% 30.35 in 10.0 mi ESE 6.9 mph - N/A   Clear
4:55 AM 46.4 °F 42.9 °F 46.4 °F 100% 30.35 in 10.0 mi East 6.9 mph - N/A   Clear
5:15 AM 46.4 °F 42.4 °F 46.4 °F 100% 30.35 in 10.0 mi East 8.1 mph - N/A   Clear
5:35 AM 46.4 °F 41.9 °F 46.4 °F 100% 30.35 in 10.0 mi East 9.2 mph - N/A   Clear
5:55 AM 46.4 °F 42.9 °F 46.4 °F 100% 30.35 in 10.0 mi East 6.9 mph - N/A   Clear
6:35 AM 46.4 °F 44.3 °F 46.4 °F 100% 30.35 in 10.0 mi East 4.6 mph - N/A   Clear
6:55 AM 46.4 °F 42.4 °F 44.6 °F 93% 30.35 in 10.0 mi East 8.1 mph - N/A   Clear
7:15 AM 44.6 °F 41.4 °F 44.6 °F 100% 30.35 in 10.0 mi East 5.8 mph - N/A   Clear
7:35 AM 46.4 °F 44.3 °F 44.6 °F 93% 30.36 in 10.0 mi ESE 4.6 mph - N/A   Clear
7:55 AM 46.4 °F - 44.6 °F 93% 30.37 in 10.0 mi Calm Calm - N/A   Clear
8:15 AM 44.6 °F 42.2 °F 44.6 °F 100% 30.37 in 10.0 mi ESE 4.6 mph - N/A   Clear
8:35 AM 46.4 °F 44.3 °F 44.6 °F 93% 30.38 in 10.0 mi SE 4.6 mph - N/A   Clear
8:55 AM 48.2 °F - 44.6 °F 87% - 10.0 mi SE 5.8 mph - N/A   Clear
9:15 AM 50.0 °F - 44.6 °F 82% 30.37 in 10.0 mi ESE 4.6 mph - N/A   Clear
9:35 AM 51.8 °F - 44.6 °F 76% 30.37 in 10.0 mi ESE 4.6 mph - N/A   Clear
9:55 AM 51.8 °F - 46.4 °F 82% 30.38 in 10.0 mi ESE 3.5 mph - N/A   Clear
10:35 AM 53.6 °F - 44.6 °F 72% 30.38 in 10.0 mi SSE 4.6 mph - N/A   Clear
10:55 AM 53.6 °F - 44.6 °F 72% 30.37 in 10.0 mi South 8.1 mph - N/A   Clear
11:15 AM 53.6 °F - 44.6 °F 72% 30.37 in 10.0 mi SSE 4.6 mph - N/A   Clear
11:35 AM 53.6 °F - 44.6 °F 72% 30.36 in 10.0 mi South 4.6 mph - N/A   Clear
11:55 AM 55.4 °F - 44.6 °F 67% 30.36 in 10.0 mi South 8.1 mph - N/A   Clear
12:15 PM 53.6 °F - 44.6 °F 72% 30.36 in 7.0 mi South 6.9 mph - N/A   Mostly Cloudy
12:35 PM 55.4 °F - 44.6 °F 67% 30.34 in 10.0 mi SSE 8.1 mph - N/A   Overcast
12:55 PM 55.4 °F - 44.6 °F 67% 30.34 in 10.0 mi South 5.8 mph - N/A   Overcast
1:15 PM 55.4 °F - 44.6 °F 67% 30.34 in 10.0 mi South 6.9 mph - N/A   Overcast
1:35 PM 55.4 °F - 44.6 °F 67% 30.34 in 10.0 mi South 9.2 mph - N/A   Overcast
1:55 PM 53.6 °F - 44.6 °F 72% 30.33 in 10.0 mi SSW 10.4 mph - N/A   Mostly Cloudy
2:15 PM 53.6 °F - 46.4 °F 77% 30.32 in 10.0 mi SSW 13.8 mph 20.7 mph N/A   Mostly Cloudy
2:35 PM 53.6 °F - 46.4 °F 77% 30.32 in 10.0 mi SSW 17.3 mph 24.2 mph N/A   Scattered Clouds
2:55 PM 53.6 °F - 46.4 °F 77% 30.32 in 10.0 mi South 16.1 mph 24.2 mph N/A   Scattered Clouds
3:15 PM 53.6 °F - 46.4 °F 77% 30.32 in 10.0 mi South 17.3 mph 23.0 mph N/A   Scattered Clouds
3:35 PM 53.6 °F - 46.4 °F 77% 30.31 in 10.0 mi South 19.6 mph 24.2 mph N/A   Scattered Clouds
3:55 PM 53.6 °F - 48.2 °F 82% 30.31 in 10.0 mi South 15.0 mph 25.3 mph N/A   Mostly Cloudy
4:15 PM 53.6 °F - 50.0 °F 88% 30.31 in 5.0 mi South 18.4 mph 26.5 mph N/A   Overcast
4:35 PM 51.8 °F - 50.0 °F 94% 30.30 in 3.0 mi South 16.1 mph 23.0 mph N/A   Overcast
4:55 PM 51.8 °F - 51.8 °F 100% 30.31 in 1.8 mi South 18.4 mph 25.3 mph N/A   Overcast
5:15 PM 51.8 °F - 51.8 °F 100% 30.31 in 3.0 mi South 18.4 mph 28.8 mph N/A   Overcast
5:35 PM 53.6 °F - 51.8 °F 94% 30.31 in 5.0 mi South 20.7 mph 28.8 mph N/A Rain Rain
5:55 PM 53.6 °F - 51.8 °F 94% 30.31 in 2.5 mi South 19.6 mph 25.3 mph 0.01 in Rain Light Rain
6:15 PM 53.6 °F - 51.8 °F 94% 30.31 in 3.0 mi South 16.1 mph 27.6 mph 0.01 in Rain Light Rain
6:35 PM 53.6 °F - 53.6 °F 100% 30.31 in 2.0 mi South 19.6 mph 26.5 mph 0.01 in Rain Light Rain
6:55 PM 53.6 °F - 53.6 °F 100% 30.31 in 2.0 mi South 20.7 mph 31.1 mph 0.02 in Rain Light Rain
7:15 PM 53.6 °F - 53.6 °F 100% 30.31 in 2.0 mi SSW 21.9 mph 29.9 mph 0.01 in Rain Light Rain
7:35 PM 53.6 °F - 53.6 °F 100% 30.32 in 2.0 mi SSW 21.9 mph 27.6 mph 0.05 in Rain Rain
7:55 PM 55.4 °F - 53.6 °F 94% 30.32 in 2.0 mi SSW 19.6 mph - 0.07 in Rain Light Rain
8:15 PM 55.4 °F - 55.4 °F 100% 30.32 in 1.8 mi SSW 18.4 mph 25.3 mph 0.01 in Rain Light Rain
8:35 PM 55.4 °F - 55.4 °F 100% 30.32 in 1.8 mi SW 17.3 mph 28.8 mph 0.02 in Rain Light Rain
8:55 PM 55.4 °F - 55.4 °F 100% 30.33 in 1.5 mi SSW 17.3 mph 21.9 mph 0.03 in Rain Light Rain
9:15 PM 55.4 °F - 55.4 °F 100% 30.34 in 1.5 mi SSW 19.6 mph 23.0 mph 0.01 in Rain Heavy Rain
9:35 PM 55.4 °F - 55.4 °F 100% 30.34 in 1.2 mi SSW 20.7 mph 25.3 mph 0.02 in Rain Light Rain
9:55 PM 55.4 °F - 55.4 °F 100% 30.34 in 1.2 mi SSW 17.3 mph 24.2 mph 0.02 in   Drizzle
10:15 PM 55.4 °F - 55.4 °F 100% 30.34 in 1.5 mi SSW 17.3 mph 23.0 mph N/A Rain Light Rain
10:35 PM 55.4 °F - 55.4 °F 100% 30.34 in 1.0 mi SSW 16.1 mph - N/A   Overcast
10:55 PM 55.4 °F - 55.4 °F 100% 30.35 in 1.5 mi SW 15.0 mph 21.9 mph N/A   Overcast
11:15 PM 55.4 °F - 55.4 °F 100% 30.34 in 2.5 mi SSW 16.1 mph 20.7 mph N/A   Overcast
11:35 PM 55.4 °F - 55.4 °F 100% 30.35 in 1.5 mi SSW 16.1 mph 20.7 mph N/A Rain Light Rain
11:55 PM 55.4 °F - 55.4 °F 100% 30.35 in 1.5 mi SSW 15.0 mph - 0.01 in Rain Rain